This is the latest recevied weather packets stored in our database for station/object KF7OVD-WX. If no packets are shown the sender has not sent any weather packets the latest 10 day(s).
| Time | Temp. | Humidity | Pressure | Rain* | Wind** | Luminosity | Snow |
|---|---|---|---|---|---|---|---|
| 1777747230 | 23.89° C | 20% | 1024.3 hPa | 0 mm | - | - | - |
| 1777746323 | 22.22° C | 21% | 1024.5 hPa | 0 mm | - | - | - |
| 1777745718 | 22.78° C | 23% | 1024.6 hPa | 0 mm | - | - | - |
| 1777743931 | 21.67° C | 24% | 1025.1 hPa | 0 mm | - | - | - |
| 1777743025 | 21.11° C | 25% | 1025.1 hPa | 0 mm | - | - | - |
| 1777740929 | 19.44° C | 31% | 1025.4 hPa | 0 mm | - | - | - |
| 1777739721 | 18.33° C | 31% | 1025.7 hPa | 0 mm | - | - | - |
| 1777738815 | 17.22° C | 33% | 1025.7 hPa | 0 mm | - | - | - |
| 1777737927 | 16.67° C | 33% | 1025.7 hPa | 0 mm | - | - | - |
| 1777736416 | 14.44° C | 35% | 1026 hPa | 0 mm | - | - | - |
| 1777735819 | 15° C | 34% | 1025.9 hPa | 0 mm | - | - | - |
| 1777734025 | 13.33° C | 33% | 1025.9 hPa | 0 mm | - | - | - |
| 1777730118 | 1.67° C | 63% | 1025.7 hPa | 0 mm | - | - | - |
| 1777727418 | -3.33° C | 76% | 1025.3 hPa | 0 mm | - | - | - |
| 1777727116 | -3.89° C | 76% | 1025.3 hPa | 0 mm | - | - | - |
| 1777724424 | -3.89° C | 76% | 1025.1 hPa | 0 mm | - | - | - |
| 1777722329 | -3.33° C | 74% | 1025.1 hPa | 0 mm | - | - | - |
| 1777720820 | -3.33° C | 73% | 1025.1 hPa | 0 mm | - | - | - |
| 1777720518 | -3.33° C | 74% | 1025.1 hPa | 0 mm | - | - | - |
| 1777719932 | -3.33° C | 74% | 1025.1 hPa | 0 mm | - | - | - |
| 1777719623 | -3.33° C | 73% | 1025.3 hPa | 0 mm | - | - | - |
| 1777717215 | -2.22° C | 69% | 1025.1 hPa | 0 mm | - | - | - |
| 1777716931 | -2.22° C | 68% | 1025.1 hPa | 0 mm | - | - | - |
| 1777716026 | -2.22° C | 69% | 1025.1 hPa | 0 mm | - | - | - |
| 1777715745 | -2.22° C | 70% | 1025.1 hPa | 0 mm | - | - | - |
* Rain latest hour (hover to see other rain measurements)
** Current wind speed in m/s (hover to see current wind gust speed)